[[{"header":{"parameterUnit":"m.s-1","parameterCategory":1,"la1":30.2991,"la2":30.254,"lo1":-89.0895,"lo2":-89.0444,"dy":0.0017,"dx":0.0017,"nx":28,"ny":28,"refTime":"2024-12-24T09:00:00:Z","depth":0,"parameterNumber":2,"parameterNumberName":"U-component_of_WINDS"},"data":[0,0,0,0,0,0,0,0,0,0,0,0,0,0,0,0,0,0,0,0,0,0,0,0,0,0,0,0,0,0,0,0,0,0,0,0,0,0,0,0,0,0,0,0,0,0,0,0,0,0,0,0,0,0,0,0,0,0,-5.992,-5.9922,0,-6.0039,-6.004,-6.0041,-5.99,-5.9895,-5.9889,-5.9884,-6.0009,-6.0017,-6.0025,0,0,0,0,0,0,0,0,0,0,0,0,0,-5.9574,-5.9581,-5.992,-5.9922,-5.9923,-6.0039,-6.004,-6.0042,-5.9901,-5.9894,-5.9888,-5.9882,-6.0006,-6.0016,-6.0025,0,0,0,0,0,0,0,0,0,0,0,0,0,-5.9712,-5.9584,-5.992,-5.9867,-5.9863,-6.0038,-6.004,-6.0042,-5.9902,-5.9894,-5.9886,-5.9879,-6.0003,-6.0015,-6.0027,-6.0261,0,0,-6.0064,-6.007,0,0,0,0,0,0,0,0,-5.9704,-5.9725,-5.9873,-5.9871,-5.9867,-5.9946,-5.9963,-6.0116,-5.9904,-5.9888,-5.9884,-5.9875,-5.9994,-6.0007,-6.0047,-6.0266,-6.0272,-6.0065,-6.0073,-6.0078,-6.0082,0,0,0,0,0,0,0,-5.9695,-5.9719,-5.9967,-5.9876,-5.9872,-5.9838,-5.9848,-5.9992,-5.9984,-5.9888,-5.9878,-5.9894,-5.9991,-6.0035,-6.0048,-6.0274,-6.0065,-6.0076,-6.0084,-6.0088,-6.0692,-6.07,0,0,0,0,0,0,-5.9691,-5.9712,-5.9963,-5.9971,-5.9765,-5.985,-5.9862,-5.9929,-5.9982,-5.9982,-5.9901,-5.9887,-6.0018,-6.0034,-6.0052,-6.033,-6.0078,-6.009,-6.0097,-6.0683,-6.0694,-6.0703,0,0,0,0,0,0,-5.9684,-5.9715,-5.9959,-5.9839,-5.9867,-5.9865,-5.9941,-5.9936,-5.9979,-5.9991,-5.9989,-5.9947,-6.0012,-6.0035,-6.021,-6.0333,-6.0095,-6.0106,-6.0673,-6.0687,-6.0698,-6.0888,0,0,0,0,0,0,-5.9675,-5.9713,-5.9802,-5.9842,-5.9874,-6.0114,-5.9948,-5.9944,-6.0,-5.9984,-6.0034,-6.0035,-6.0008,-6.0192,-6.0222,-6.0345,-6.0116,-6.0662,-6.0679,-6.0694,-6.0871,-6.0906,-6.0936,0,0,0,0,0,-5.9663,-5.9851,-5.9807,-5.9838,-5.9985,-6.0122,-6.014,-6.0105,-6.0011,-6.01,-6.0108,-6.0033,-6.0314,-6.0211,-6.0244,-6.0373,-6.0654,-6.0674,-6.0693,-6.0856,-6.0899,-6.0935,0,0,0,0,0,0,-5.9827,-5.9855,-5.9807,-6.0013,-6.0066,-6.0097,-6.0209,-6.0151,-6.0232,-6.0213,-6.0166,-6.0179,-6.0365,-6.0386,-6.0271,-6.0602,-6.0469,-6.0496,-6.0582,-6.0623,-6.0655,-6.0646,-6.0126,0,0,0,0,0,-5.9887,-5.9995,-6.0014,-6.0194,-6.0223,-6.0212,-6.027,-6.0238,-6.0291,-6.0313,-6.0334,-6.0389,-6.0489,-6.0557,-6.065,-6.0873,-6.0882,-6.0977,-6.101,-6.1036,-6.1061,-6.1181,-6.1224,-6.0767,-6.0767,-6.0766,0,0,-6.0012,-6.0041,-6.0112,-6.0228,-6.0265,-6.0379,-6.0232,-6.0359,-6.0443,-6.0333,-6.0499,-6.0516,-6.0575,-6.0775,-6.0864,-6.0798,-6.1189,-6.1061,-6.1082,-6.1092,-6.1205,-6.1249,-6.1287,-6.078,-6.0778,-6.0776,0,0,-6.0299,-6.0331,-6.0485,-6.0525,-6.0583,-6.0574,-6.0611,-6.0652,-6.0659,-6.0824,-6.0744,-6.0844,-6.1018,-6.1063,-6.1109,-6.1413,-6.1347,-6.1444,-6.1615,-6.1733,-6.1769,-6.18,-6.191,-6.195,-6.1468,-6.1469,-6.1469,0,-6.0448,-6.0616,-6.0572,-6.0705,-6.0758,-6.0662,-6.0818,-6.086,-6.0946,-6.0985,-6.0909,-6.1126,-6.1158,-6.1368,-6.1442,-6.1482,-6.1524,-6.1439,-6.1767,-6.1798,-6.1827,-6.1931,-6.1972,-6.148,-6.1479,-6.1477,-6.1476,0,-6.0796,-6.0914,-6.1031,-6.1116,-6.1182,-6.1327,-6.1305,-6.1378,-6.134,-6.134,-6.151,-6.1546,-6.1645,-6.1691,-6.1656,-6.1897,-6.1854,-6.1774,-6.1639,-6.1883,-6.198,-6.2019,-6.1496,-6.1492,-6.1489,-6.1486,0,0,-6.1191,-6.1249,-6.1293,-6.133,-6.1387,-6.1477,-6.1617,-6.1712,-6.1776,-6.1839,-6.1955,-6.2104,-6.203,-6.2082,-6.2051,-6.2154,-6.2393,-6.206,-6.2061,-6.2122,-6.2662,-6.2724,-6.2771,-6.235,-6.2357,-6.2363,-6.2658,0,-6.1479,-6.172,-6.1685,-6.1918,-6.2027,-6.1937,-6.2058,-6.2107,-6.211,-6.2203,-6.2206,-6.2313,-6.2206,-6.2237,-6.2335,-6.2344,-6.2502,-6.2322,-6.2459,-6.2465,-6.2449,-6.2821,-6.2887,-6.3163,-6.2695,-6.2702,-6.2706,0,-6.1848,-6.1923,-6.2167,-6.2206,-6.2251,-6.2361,-6.2446,-6.2536,-6.2589,-6.2584,-6.2642,-6.2592,-6.2732,-6.2594,-6.2788,-6.2666,-6.272,-6.2733,-6.2742,-6.2755,-6.2602,-6.2846,-6.3251,-6.3293,-6.2765,-6.2761,-6.2756,0,-6.2113,-6.2275,-6.2442,-6.2476,-6.2526,-6.2606,-6.2631,-6.2676,-6.2736,-6.281,-6.2849,-6.2939,-6.2989,-6.3061,-6.3036,-6.2938,-6.3236,-6.3095,-6.3236,-6.3238,-6.3305,-6.3301,-6.3726,-6.3337,-6.3337,-6.3336,-6.3335,0,-6.244,-6.2593,-6.2562,-6.2665,-6.2834,-6.2791,-6.296,-6.2974,-6.3015,-6.3119,-6.3046,-6.3146,-6.3107,-6.3205,-6.3187,-6.3351,-6.3373,-6.3374,-6.3368,-6.3382,-6.3382,-6.3418,-6.3399,-6.3347,-6.3344,-6.3342,-6.334,0,-6.2765,-6.275,-6.2926,-6.2959,-6.2971,-6.3094,-6.3122,-6.3219,-6.3216,-6.3349,-6.3378,-6.3374,-6.3485,-6.3467,-6.3591,-6.3579,-6.3784,-6.3753,-6.3766,-6.3759,-6.3902,-6.389,-6.4366,-6.4427,-6.3998,-6.4002,-6.4006,0,-6.2975,-6.3091,-6.3136,-6.32,-6.3231,-6.3336,-6.3396,-6.3359,-6.3425,-6.3494,-6.3583,-6.3688,-6.3769,-6.3951,-6.396,-6.4054,-6.4026,-6.4187,-6.404,-6.4051,-6.4031,-6.4025,-6.4036,-6.4216,-6.4221,-6.4225,-6.4228,0,-6.3351,-6.3337,-6.3427,-6.3515,-6.359,-6.3657,-6.3718,-6.3775,-6.3743,-6.3821,-6.3933,-6.3997,-6.4122,-6.4228,-6.4316,-6.4341,-6.4282,-6.4274,-6.4312,-6.4328,-6.4332,-6.4333,-6.3847,-6.4264,-6.426,-6.4258,-6.4256,-6.4254,-6.3626,-6.3724,-6.3772,-6.3874,-6.3916,-6.3974,-6.4067,-6.4075,-6.4168,-6.4267,-6.4239,-6.4367,-6.4417,-6.4529,-6.4565,-6.4665,-6.4605,-6.466,-6.4674,-6.4689,-6.4707,-6.4315,-6.468,-6.4679,-6.4678,-6.4677,-6.4677,0,-6.3998,-6.4024,-6.4119,-6.4205,-6.4287,-6.422,-6.4284,-6.4356,-6.447,-6.4521,-6.4603,-6.4732,-6.4834,-6.485,-6.4947,-6.5024,-6.4999,-6.5051,-6.5045,-6.5053,-6.4753,-6.4711,-6.5069,-6.5069,-6.5069,-6.5069,-6.5069,-6.5069,-6.4202,-6.4366,-6.4358,-6.4542,-6.4566,-6.4691,-6.4733,-6.4786,-6.4827,-6.4975,-6.5059,-6.5068,-6.5106,-6.5204,-6.5295,-6.5297,-6.5337,-6.54,-6.5392,-6.5113,-6.5074,-6.5036,-6.4997,-6.5409,-6.5409,-6.5683,-6.5685,-6.5687]},{"header":{"parameterUnit":"m.s-1","parameterCategory":1,"la1":30.2991,"la2":30.254,"lo1":-89.0895,"lo2":-89.0444,"dy":0.0017,"dx":0.0017,"nx":28,"ny":28,"refTime":"2024-12-24T09:00:00:Z","depth":0,"parameterNumber":3,"parameterNumberName":"V-component_of_WINDS"},"data":[0,0,0,0,0,0,0,0,0,0,0,0,0,0,0,0,0,0,0,0,0,0,0,0,0,0,0,0,0,0,0,0,0,0,0,0,0,0,0,0,0,0,0,0,0,0,0,0,0,0,0,0,0,0,0,0,0,0,-2.0401,-2.0401,0,-2.0379,-2.0379,-2.0379,-2.0339,-2.0338,-2.0337,-2.0337,-2.0315,-2.0316,-2.0316,0,0,0,0,0,0,0,0,0,0,0,0,0,-2.0408,-2.0408,-2.0401,-2.04,-2.04,-2.0379,-2.0379,-2.0379,-2.0339,-2.0338,-2.0337,-2.0336,-2.0315,-2.0316,-2.0316,0,0,0,0,0,0,0,0,0,0,0,0,0,-2.0397,-2.0408,-2.0401,-2.0378,-2.0376,-2.0379,-2.0379,-2.0379,-2.0339,-2.0338,-2.0337,-2.0336,-2.0315,-2.0316,-2.0316,-2.034,0,0,-2.0317,-2.0317,0,0,0,0,0,0,0,0,-2.0398,-2.0397,-2.0382,-2.038,-2.0377,-2.0361,-2.0373,-2.0366,-2.034,-2.0353,-2.0337,-2.0335,-2.0331,-2.033,-2.0329,-2.0339,-2.0338,-2.0317,-2.0317,-2.0317,-2.0317,0,0,0,0,0,0,0,-2.0399,-2.0398,-2.0392,-2.0381,-2.0379,-2.0369,-2.0366,-2.0372,-2.0349,-2.0352,-2.0349,-2.0347,-2.033,-2.0329,-2.0328,-2.0338,-2.0317,-2.0317,-2.0317,-2.0317,-2.0366,-2.0367,0,0,0,0,0,0,-2.0403,-2.0399,-2.0393,-2.0392,-2.0385,-2.037,-2.0366,-2.0367,-2.0349,-2.0345,-2.0348,-2.0345,-2.0329,-2.0328,-2.0327,-2.0354,-2.0317,-2.0317,-2.0317,-2.0365,-2.0366,-2.0368,0,0,0,0,0,0,-2.0403,-2.0403,-2.0394,-2.0394,-2.0392,-2.0371,-2.0372,-2.0367,-2.0366,-2.0346,-2.0342,-2.0351,-2.0328,-2.0327,-2.0337,-2.0352,-2.0317,-2.0317,-2.0364,-2.0365,-2.0367,-2.0407,0,0,0,0,0,0,-2.0403,-2.0403,-2.0412,-2.0395,-2.0393,-2.0404,-2.0373,-2.0368,-2.0366,-2.0362,-2.0347,-2.0344,-2.0327,-2.0337,-2.0337,-2.0352,-2.0317,-2.0362,-2.0364,-2.0366,-2.0405,-2.041,-2.0415,0,0,0,0,0,-2.0404,-2.0425,-2.0413,-2.0412,-2.0403,-2.0405,-2.0404,-2.0384,-2.0368,-2.0376,-2.0363,-2.0344,-2.0351,-2.0338,-2.0338,-2.0353,-2.0361,-2.0364,-2.0366,-2.0402,-2.0409,-2.0415,0,0,0,0,0,0,-2.0445,-2.0422,-2.0409,-2.0425,-2.0417,-2.0398,-2.0409,-2.0392,-2.0389,-2.0386,-2.0361,-2.0358,-2.0371,-2.0363,-2.035,-2.0375,-2.0353,-2.0356,-2.038,-2.0386,-2.0392,-2.0393,-2.0318,0,0,0,0,0,-2.0456,-2.0459,-2.0439,-2.0455,-2.0452,-2.0431,-2.0431,-2.0416,-2.0407,-2.0404,-2.0392,-2.0384,-2.0384,-2.0385,-2.0384,-2.0403,-2.0399,-2.0414,-2.0419,-2.0423,-2.0426,-2.0434,-2.044,-2.0376,-2.0376,-2.0376,0,0,-2.0479,-2.0466,-2.047,-2.0463,-2.0455,-2.0459,-2.0429,-2.0434,-2.0436,-2.0405,-2.0413,-2.0404,-2.0394,-2.0408,-2.0414,-2.0402,-2.0443,-2.0427,-2.043,-2.0431,-2.0438,-2.0444,-2.0449,-2.0378,-2.0378,-2.0377,0,0,-2.0522,-2.0513,-2.0525,-2.0518,-2.0506,-2.0492,-2.0495,-2.0479,-2.0471,-2.0479,-2.0455,-2.0458,-2.0459,-2.0452,-2.0449,-2.0488,-2.047,-2.0489,-2.0516,-2.0525,-2.053,-2.0534,-2.0548,-2.0553,-2.0491,-2.0492,-2.0492,0,-2.0551,-2.0556,-2.0533,-2.054,-2.0537,-2.0508,-2.052,-2.0514,-2.0503,-2.0502,-2.0488,-2.0488,-2.0479,-2.0491,-2.0501,-2.0499,-2.0502,-2.049,-2.0531,-2.0535,-2.0539,-2.0551,-2.0556,-2.0494,-2.0494,-2.0493,-2.0493,0,-2.0592,-2.0595,-2.0606,-2.0596,-2.0594,-2.0603,-2.0582,-2.0583,-2.0568,-2.0556,-2.0564,-2.0552,-2.0548,-2.055,-2.0535,-2.0559,-2.0552,-2.0535,-2.0512,-2.0548,-2.0559,-2.0563,-2.0497,-2.0496,-2.0496,-2.0495,0,0,-2.0661,-2.0637,-2.0641,-2.0636,-2.062,-2.0622,-2.063,-2.0625,-2.0626,-2.062,-2.0625,-2.0626,-2.061,-2.0606,-2.0591,-2.0599,-2.0629,-2.0581,-2.058,-2.059,-2.0654,-2.0666,-2.0672,-2.0617,-2.0618,-2.0619,-2.0654,0,-2.07,-2.0711,-2.0691,-2.0707,-2.0709,-2.0681,-2.0687,-2.0679,-2.0667,-2.0667,-2.0654,-2.0655,-2.0634,-2.0631,-2.0638,-2.0624,-2.0642,-2.0622,-2.0622,-2.0622,-2.0625,-2.0678,-2.0691,-2.0725,-2.0659,-2.0659,-2.066,0,-2.0747,-2.0742,-2.0758,-2.074,-2.0741,-2.0747,-2.074,-2.0741,-2.073,-2.0721,-2.0716,-2.0698,-2.0704,-2.0682,-2.0689,-2.0675,-2.0674,-2.0668,-2.0669,-2.0667,-2.0643,-2.0678,-2.0736,-2.0741,-2.0667,-2.0666,-2.0666,0,-2.0795,-2.0792,-2.08,-2.0796,-2.0777,-2.0782,-2.0774,-2.0762,-2.076,-2.0754,-2.0753,-2.0748,-2.0746,-2.0742,-2.0723,-2.0709,-2.0732,-2.0709,-2.0725,-2.0725,-2.0731,-2.073,-2.0789,-2.0731,-2.0731,-2.0731,-2.0731,0,-2.084,-2.0851,-2.0821,-2.0827,-2.0837,-2.0814,-2.0825,-2.0814,-2.0804,-2.0807,-2.0783,-2.0786,-2.076,-2.0761,-2.0746,-2.0753,-2.0753,-2.0745,-2.0741,-2.0747,-2.0748,-2.0746,-2.0742,-2.0732,-2.0732,-2.0732,-2.0731,0,-2.0895,-2.0876,-2.0883,-2.0863,-2.0859,-2.0868,-2.0851,-2.0855,-2.0841,-2.0845,-2.0844,-2.0823,-2.0822,-2.0802,-2.0797,-2.0787,-2.0801,-2.0792,-2.0804,-2.0801,-2.0818,-2.0816,-2.0876,-2.0883,-2.0822,-2.0822,-2.0823,0,-2.0925,-2.0932,-2.0913,-2.0913,-2.0906,-2.0906,-2.0903,-2.0881,-2.0879,-2.0867,-2.0872,-2.0869,-2.0865,-2.0865,-2.0849,-2.0844,-2.0835,-2.0857,-2.0835,-2.084,-2.0835,-2.0834,-2.0835,-2.0861,-2.0862,-2.0863,-2.0863,0,-2.098,-2.097,-2.0967,-2.0961,-2.0958,-2.0953,-2.0945,-2.0947,-2.0921,-2.0921,-2.0919,-2.0916,-2.091,-2.0907,-2.09,-2.0891,-2.0873,-2.087,-2.0874,-2.088,-2.0886,-2.0882,-2.0816,-2.0869,-2.0868,-2.0868,-2.0868,-2.0868,-2.1022,-2.1027,-2.1014,-2.1012,-2.1004,-2.0997,-2.0999,-2.0986,-2.0984,-2.0977,-2.0963,-2.0964,-2.0952,-2.094,-2.0933,-2.0933,-2.0922,-2.0927,-2.0928,-2.093,-2.0933,-2.0886,-2.0932,-2.0931,-2.0931,-2.0931,-2.0931,0,-2.1075,-2.1065,-2.1063,-2.1053,-2.1051,-2.1034,-2.1025,-2.1024,-2.1024,-2.1015,-2.1011,-2.1009,-2.1005,-2.0989,-2.0984,-2.0986,-2.0978,-2.0986,-2.0985,-2.0983,-2.0943,-2.094,-2.0993,-2.0993,-2.0993,-2.0993,-2.0993,-2.0993,-2.1103,-2.111,-2.1098,-2.11,-2.109,-2.1089,-2.1085,-2.1079,-2.1071,-2.1069,-2.1066,-2.1055,-2.1043,-2.1036,-2.1032,-2.1027,-2.1026,-2.1037,-2.103,-2.0992,-2.0986,-2.0981,-2.0978,-2.1037,-2.1037,-2.107,-2.107,-2.107]}]]